This demonstration page uses our WeatherBlox Daily Observations layout. Learn more.

Left ArrowRight Arrow

39.01783, -85.05884

Hourly Observations for June 23, 2015

Temp ( °F °C ) Dew Point ( °F °C ) Humidity (%) Winds ( mph kmh ) Pressure ( in mb ) Visibility ( mi km ) Precip ( " mm )
12:52 am 00:52 Mostly Cloudy 79 26.1 72 22.2 79 79 SSW 9 15 29.93 1013 9 14 N/A
1:52 am 01:52 Mostly Cloudy 78 25.6 72 22.2 82 82 SSW 12 19 29.93 1013 9 14 N/A
2:52 am 02:52 Cloudy 78 25.6 72 22.2 82 82 SSW 12 19 29.92 1013 9 14 N/A
3:52 am 03:52 Cloudy 77 25 72 22.2 85 85 SSW 9 15 29.91 1013 9 14 N/A
4:52 am 04:52 Cloudy 77 25 72 22.2 85 85 SW 7 11 29.93 1014 8 13 N/A
5:52 am 05:52 Cloudy 76 24.4 72 22.2 88 88 SSW 10 17 29.91 1013 8 13 N/A
6:52 am 06:52 Cloudy 76 24.4 72 22.2 88 88 SSW 9 15 29.92 1013 7 11 N/A
7:52 am 07:52 Mostly Cloudy 77 25 72 22.2 85 85 SSW 13 20 29.90 1013 7 11 N/A
8:17 am 08:17 Cloudy 79 26 72 22 79 79 SW 14 22 29.94 1014 7 11 N/A
8:52 am 08:52 Cloudy 78 25.6 72 22.2 82 82 SW 10 17 29.94 1014 7 11 N/A
9:52 am 09:52 Mostly Cloudy 81 27.2 73 22.8 77 77 W 12 19 29.94 1014 7 11 N/A
10:52 am 10:52 Cloudy 82 27.8 73 22.8 74 74 W 14 22 29.94 1014 7 11 N/A
11:52 am 11:52 Mostly Cloudy 84 28.9 74 23.3 72 72 W 13 20 29.96 1015 8 13 N/A
12:52 pm 12:52 Mostly Cloudy 86 30 74 23.3 67 67 W 14 22 29.96 1015 9 14 N/A
1:52 pm 13:52 Mostly Cloudy 87 30.6 74 23.3 65 65 W 13 20 29.96 1015 10 16 N/A
2:52 pm 14:52 Partly Cloudy 88 31.1 73 22.8 61 61 WNW 13 20 29.96 1015 10 16 N/A
3:52 pm 15:52 Mostly Sunny 88 31.1 69 20.6 54 54 WNW 17 28 29.96 1015 10 16 N/A
4:52 pm 16:52 Partly Cloudy 88 31.1 69 20.6 54 54 NW 17 28 29.96 1015 10 16 N/A
5:52 pm 17:52 Partly Cloudy 86 30 68 20 55 55 NNW 16 26 29.97 1015 10 16 N/A
6:52 pm 18:52 Partly Cloudy 83 28.3 66 18.9 57 57 N 14 22 29.97 1015 10 16 N/A
7:52 pm 19:52 Partly Cloudy 82 27.8 66 18.9 58 58 NNW 14 22 30.01 1016 10 16 N/A
8:52 pm 20:52 Mostly Cloudy 79 26.1 59 15 50 50 NNW 9 15 30.04 1017 10 16 N/A
9:52 pm 21:52 Partly Cloudy 75 23.9 59 15 58 58 NNW 8 13 30.05 1018 10 16 N/A
10:52 pm 22:52 Mostly Clear 73 22.8 57 13.9 57 57 NNW 6 9 30.06 1018 10 16 N/A
11:52 pm 23:52 Mostly Clear 72 22.2 58 14.4 61 61 NNW 6 9 30.06 1018 10 16 N/A

Powered by AerisWeather